sat.trackr.live / text

‹ back to catalog

STARLINK-11303 [DTC]

NORAD 62096 · 2024-220J

PAYLOAD ACTIVE UNKNOWN

§ Identity

Operator
Country
US
Launch date
2024-11-25
Launch site
AFETR
Launch vehicle
Mass (kg)
RCS (m²)

Purposes: comms

External: N2YO · Heavens-Above · Gunter

§ Orbital elements

Epoch: 2026-09-20T07:19:23.834208Z

Period
91.68 min
Inclination
42.9995°
Eccentricity
0.0000939
Mean motion
15.70683441 rev/d
Perigee alt
356.3 km
Apogee alt
357.6 km
Semi-major
6,735.1 km
B*
2.4759e-3
RAAN
309.7705°
Arg perigee
244.9447°
Mean anomaly
115.1323°
Rev number
10,566

§ Raw data

STARLINK-11303 [DTC]1 62096U 24220J   26263.30513697  .00327950  00000+0  24759-2 0  99902 62096  42.9995 309.7705 0000939 244.9447 115.1323 15.70683441105662

JSON: /api/v1/satellites/62096 · /tle

For live sub-satellite position, see the globe view (requires WebGL).

§ Visibility from observer

Set your observer location to see the next 7 days of passes ≥ 10°. The values pass through the URL so the page stays shareable.

No JS? Fill the form by hand. The geolocation button needs JavaScript.